Time,TemperatureF,DewpointF,PressureIn,WindDirection,WindDirectionDegrees,WindSpeedMPH,WindSpeedGustMPH,Humidity,HourlyPrecipIn,Conditions,Clouds,dailyrainin,SoftwareType,DateUTC
2013-02-02 00:22:00,15.0,5.0,30.35,NNE,19,2.0,5.0,65,0.00,,,0.00,,2013-02-02 05:22:00,
2013-02-02 00:33:00,15.0,5.0,30.35,NNE,19,0.0,3.0,64,0.00,,,0.00,,2013-02-02 05:33:00,
2013-02-02 00:52:00,15.0,5.0,30.35,NNE,19,1.0,3.0,65,0.00,,,0.00,,2013-02-02 05:52:00,
2013-02-02 01:22:00,15.0,5.0,30.33,ENE,57,0.0,3.0,65,0.00,,,0.00,,2013-02-02 06:22:00,
2013-02-02 01:32:00,16.0,6.0,30.33,ENE,57,0.0,2.0,65,0.00,,,0.00,,2013-02-02 06:32:00,
2013-02-02 01:52:00,16.0,6.0,30.32,ENE,57,0.0,2.0,65,0.00,,,0.00,,2013-02-02 06:52:00,
2013-02-02 02:02:00,15.0,6.0,30.32,ENE,57,0.0,1.0,66,0.00,,,0.00,,2013-02-02 07:02:00,
2013-02-02 02:12:00,15.0,6.0,30.32,ENE,57,0.0,1.0,67,0.00,,,0.00,,2013-02-02 07:12:00,
2013-02-02 02:21:00,15.0,6.0,30.32,ENE,57,0.0,1.0,67,0.00,,,0.00,,2013-02-02 07:21:00,
2013-02-02 02:52:00,14.0,5.0,30.30,ENE,57,0.0,1.0,68,0.00,,,0.00,,2013-02-02 07:52:00,
2013-02-02 03:01:00,14.0,6.0,30.30,ENE,59,1.0,3.0,69,0.00,,,0.00,,2013-02-02 08:01:00,
2013-02-02 03:21:00,14.0,6.0,30.31,ENE,59,0.0,3.0,69,0.00,,,0.00,,2013-02-02 08:21:00,
2013-02-02 03:53:00,13.0,6.0,30.31,ENE,59,0.0,2.0,72,0.00,,,0.00,,2013-02-02 08:53:00,
2013-02-02 04:22:00,12.0,6.0,30.32,ENE,59,0.0,0.0,75,0.00,,,0.00,,2013-02-02 09:22:00,
2013-02-02 04:31:00,12.0,6.0,30.31,ENE,59,0.0,1.0,76,0.00,,,0.00,,2013-02-02 09:31:00,
2013-02-02 04:52:00,12.0,6.0,30.30,ENE,59,0.0,0.0,77,0.00,,,0.00,,2013-02-02 09:52:00,
2013-02-02 05:02:00,11.0,6.0,30.31,ENE,59,0.0,0.0,78,0.00,,,0.00,,2013-02-02 10:02:00,
2013-02-02 05:11:00,11.0,6.0,30.31,ENE,59,0.0,0.0,79,0.00,,,0.00,,2013-02-02 10:11:00,
2013-02-02 05:21:00,11.0,6.0,30.31,ENE,59,0.0,0.0,79,0.00,,,0.00,,2013-02-02 10:21:00,
2013-02-02 05:32:00,11.0,6.0,30.31,ENE,59,0.0,1.0,79,0.00,,,0.00,,2013-02-02 10:32:00,
2013-02-02 06:02:00,11.0,6.0,30.32,ENE,59,0.0,1.0,80,0.00,,,0.00,,2013-02-02 11:02:00,
2013-02-02 06:32:00,10.0,5.0,30.32,ENE,59,0.0,0.0,81,0.00,,,0.00,,2013-02-02 11:32:00,
2013-02-02 06:52:00,10.0,6.0,30.33,ENE,59,0.0,2.0,82,0.00,,,0.00,,2013-02-02 11:52:00,
2013-02-02 07:22:00,10.0,6.0,30.33,ENE,59,0.0,1.0,82,0.00,,,0.00,,2013-02-02 12:22:00,
2013-02-02 07:32:00,10.0,6.0,30.34,ENE,58,0.0,1.0,82,0.00,,,0.00,,2013-02-02 12:32:00,
2013-02-02 07:52:00,10.0,6.0,30.34,ENE,59,0.0,1.0,83,0.00,,,0.00,,2013-02-02 12:52:00,
2013-02-02 08:03:00,10.0,6.0,30.34,ENE,59,0.0,2.0,84,0.00,,,0.00,,2013-02-02 13:03:00,
2013-02-02 08:22:00,11.0,7.0,30.34,ENE,59,0.0,0.0,84,0.00,,,0.00,,2013-02-02 13:22:00,
2013-02-02 08:32:00,12.0,8.0,30.33,ENE,59,0.0,0.0,84,0.00,,,0.00,,2013-02-02 13:32:00,
2013-02-02 08:52:00,13.0,10.0,30.33,ENE,59,0.0,1.0,86,0.00,,,0.00,,2013-02-02 13:52:00,
2013-02-02 09:02:00,14.0,10.0,30.33,ENE,58,0.0,3.0,84,0.00,,,0.00,,2013-02-02 14:02:00,
2013-02-02 09:22:00,15.0,11.0,30.32,ENE,58,0.0,2.0,82,0.00,,,0.00,,2013-02-02 14:22:00,
2013-02-02 09:52:00,18.0,12.0,30.30,ENE,58,0.0,2.0,76,0.00,,,0.00,,2013-02-02 14:52:00,
2013-02-02 10:03:00,19.0,12.0,30.29,ENE,58,1.0,2.0,73,0.00,,,0.00,,2013-02-02 15:03:00,
2013-02-02 10:22:00,21.0,12.0,30.28,ENE,58,0.0,2.0,69,0.00,,,0.00,,2013-02-02 15:22:00,
2013-02-02 10:32:00,26.0,15.0,30.25,ENE,58,0.0,2.0,62,0.00,,,0.00,,2013-02-02 15:32:00,
2013-02-02 10:42:00,26.0,15.0,30.25,ENE,58,0.0,2.0,62,0.00,,,0.00,,2013-02-02 15:42:00,
2013-02-02 10:52:00,29.0,10.0,30.23,SSE,166,5.0,10.0,45,0.00,,,0.00,,2013-02-02 15:52:00,
2013-02-02 11:03:00,29.0,10.0,30.23,SSE,166,5.0,10.0,45,0.00,,,0.00,,2013-02-02 16:03:00,
2013-02-02 11:12:00,29.0,10.0,30.23,SSE,166,5.0,10.0,45,0.00,,,0.00,,2013-02-02 16:12:00,
2013-02-02 11:22:00,32.0,13.0,30.20,SSW,204,3.0,9.0,44,0.00,,,0.00,,2013-02-02 16:22:00,
2013-02-02 11:32:00,32.0,13.0,30.20,SSW,204,3.0,9.0,44,0.00,,,0.00,,2013-02-02 16:32:00,
2013-02-02 11:42:00,32.0,13.0,30.20,SSW,204,3.0,9.0,44,0.00,,,0.00,,2013-02-02 16:42:00,
2013-02-02 11:52:00,32.0,13.0,30.20,SSW,204,3.0,9.0,44,0.00,,,0.00,,2013-02-02 16:52:00,
2013-02-02 12:02:00,35.0,16.0,30.17,South,174,2.0,7.0,45,0.00,,,0.00,,2013-02-02 17:02:00,
2013-02-02 12:11:00,35.0,16.0,30.17,South,174,2.0,7.0,45,0.00,,,0.00,,2013-02-02 17:11:00,
2013-02-02 12:23:00,35.0,16.0,30.17,South,174,2.0,7.0,45,0.00,,,0.00,,2013-02-02 17:23:00,
2013-02-02 12:32:00,35.0,16.0,30.17,WSW,246,2.0,9.0,46,0.00,,,0.00,,2013-02-02 17:32:00,
2013-02-02 12:42:00,35.0,16.0,30.17,WSW,246,2.0,9.0,46,0.00,,,0.00,,2013-02-02 17:42:00,
2013-02-02 12:53:00,34.0,14.0,30.17,NW,305,2.0,9.0,43,0.00,,,0.00,,2013-02-02 17:53:00,
2013-02-02 13:03:00,33.0,18.0,30.17,NW,308,1.0,10.0,54,0.00,,,0.00,,2013-02-02 18:03:00,
2013-02-02 13:32:00,31.0,20.0,30.15,NNE,26,1.0,5.0,62,0.00,,,0.00,,2013-02-02 18:32:00,
2013-02-02 13:52:00,31.0,21.0,30.13,NNE,26,0.0,3.0,66,0.00,,,0.00,,2013-02-02 18:52:00,
2013-02-02 14:52:00,31.0,24.0,30.10,NNE,12,0.0,3.0,76,0.01,,,0.01,,2013-02-02 19:52:00,
2013-02-02 15:02:00,31.0,25.0,30.09,North,11,0.0,3.0,77,0.01,,,0.01,,2013-02-02 20:02:00,
2013-02-02 15:22:00,31.0,26.0,30.09,North,11,1.0,3.0,80,0.01,,,0.01,,2013-02-02 20:22:00,
2013-02-02 15:32:00,31.0,26.0,30.08,North,11,0.0,3.0,81,0.01,,,0.01,,2013-02-02 20:32:00,
2013-02-02 17:22:00,30.0,25.0,30.08,East,94,0.0,2.0,83,0.00,,,0.01,,2013-02-02 22:22:00,
2013-02-02 17:32:00,30.0,26.0,30.07,East,94,0.0,2.0,84,0.00,,,0.01,,2013-02-02 22:32:00,
2013-02-02 17:52:00,30.0,26.0,30.07,East,94,1.0,3.0,85,0.00,,,0.01,,2013-02-02 22:52:00,
2013-02-02 18:02:00,30.0,26.0,30.07,East,94,0.0,2.0,86,0.00,,,0.01,,2013-02-02 23:02:00,
2013-02-02 18:52:00,29.0,25.0,30.06,East,101,0.0,2.0,86,0.00,,,0.01,,2013-02-02 23:52:00,
2013-02-02 19:02:00,29.0,25.0,30.06,East,101,0.0,0.0,86,0.00,,,0.01,,2013-02-03 00:02:00,
2013-02-02 19:22:00,29.0,26.0,30.06,East,101,0.0,2.0,87,0.00,,,0.01,,2013-02-03 00:22:00,
2013-02-02 19:32:00,29.0,26.0,30.06,East,101,0.0,2.0,87,0.00,,,0.01,,2013-02-03 00:32:00,
2013-02-02 20:02:00,28.0,25.0,30.06,East,101,0.0,2.0,88,0.00,,,0.01,,2013-02-03 01:02:00,
2013-02-02 20:11:00,28.0,25.0,30.06,East,101,0.0,0.0,88,0.00,,,0.01,,2013-02-03 01:11:00,
2013-02-02 20:21:00,28.0,25.0,30.06,East,101,0.0,0.0,88,0.00,,,0.01,,2013-02-03 01:21:00,
2013-02-02 20:32:00,28.0,25.0,30.06,East,101,0.0,0.0,88,0.00,,,0.01,,2013-02-03 01:32:00,
2013-02-02 20:52:00,28.0,25.0,30.04,East,101,0.0,0.0,89,0.00,,,0.01,,2013-02-03 01:52:00,
2013-02-02 21:01:00,28.0,25.0,30.05,East,101,0.0,0.0,89,0.00,,,0.01,,2013-02-03 02:01:00,
2013-02-02 21:21:00,28.0,25.0,30.05,East,101,0.0,0.0,89,0.00,,,0.01,,2013-02-03 02:21:00,
2013-02-02 21:32:00,28.0,25.0,30.06,East,101,0.0,0.0,90,0.00,,,0.01,,2013-02-03 02:32:00,
2013-02-02 21:52:00,29.0,26.0,30.03,ENE,72,0.0,0.0,90,0.00,,,0.01,,2013-02-03 02:52:00,
2013-02-02 22:02:00,29.0,27.0,30.03,NNW,333,0.0,0.0,91,0.00,,,0.01,,2013-02-03 03:02:00,
2013-02-02 22:11:00,30.0,28.0,30.03,West,262,1.0,7.0,91,0.00,,,0.01,,2013-02-03 03:11:00,
2013-02-02 22:21:00,30.0,28.0,30.03,West,262,1.0,7.0,91,0.00,,,0.01,,2013-02-03 03:21:00,
2013-02-02 22:32:00,30.0,28.0,30.01,NNE,20,3.0,12.0,91,0.00,,,0.01,,2013-02-03 03:32:00,
2013-02-02 22:52:00,30.0,28.0,29.98,NE,36,5.0,13.0,91,0.00,,,0.01,,2013-02-03 03:52:00,
2013-02-02 23:01:00,30.0,28.0,29.98,NW,324,3.0,10.0,91,0.00,,,0.01,,2013-02-03 04:01:00,
2013-02-02 23:11:00,30.0,28.0,29.98,NNE,14,3.0,6.0,91,0.00,,,0.01,,2013-02-03 04:11:00,
2013-02-02 23:21:00,30.0,28.0,29.98,NNE,14,3.0,6.0,91,0.00,,,0.01,,2013-02-03 04:21:00,
2013-02-02 23:32:00,30.0,28.0,29.98,NNE,14,3.0,6.0,91,0.00,,,0.01,,2013-02-03 04:32:00,
2013-02-02 23:42:00,30.0,28.0,29.98,NNE,14,3.0,6.0,91,0.00,,,0.01,,2013-02-03 04:42:00,
2013-02-02 23:52:00,30.0,28.0,29.98,NNE,14,3.0,6.0,91,0.00,,,0.01,,2013-02-03 04:52:00,